period_start,C,m1,H,J0,J1,J2,J3,J4,J5,JA,JB,JC,JD,JJ,JK,JN,#
2015-06-09 00:34:33,0.00,0.00,0.00,17.74,18.48,17.31,4.13,21.69,1015.00,1866.94,3245.89,3042.84,3312.87,301.83,304.70,0.00,0000 0000 0000 0000 000000
2015-06-09 00:39:34,0.00,0.00,0.00,17.87,18.44,19.14,4.71,24.51,1015.51,2072.08,3599.20,3375.63,3675.48,350.16,353.51,0.03,0000 0000 0000 0000 000000
2015-06-09 00:44:35,0.01,0.00,0.00,18.06,18.42,20.01,4.82,24.56,1015.75,2072.00,3598.03,3374.98,3674.25,350.02,353.25,0.06,0000 0000 0000 0000 000000
2015-06-09 00:49:36,0.02,0.00,0.00,18.28,18.43,20.54,4.89,24.43,1016.08,2072.00,3597.41,3374.29,3673.74,350.52,353.74,0.09,0000 0000 0000 0000 000000
2015-06-09 00:54:37,0.03,0.00,0.00,18.57,18.48,20.94,4.79,24.52,1016.13,2072.00,3597.00,3374.00,3673.02,349.73,352.68,0.12,0000 0000 0000 0000 000000
2015-06-09 00:59:38,0.06,0.00,0.00,18.90,18.56,21.37,4.78,24.52,1016.25,2071.97,3596.24,3373.29,3672.22,350.33,352.86,0.15,0000 0000 0000 0000 000000
2015-06-09 01:04:40,-0.02,0.00,0.00,19.25,18.68,21.79,4.80,24.60,1016.55,2071.48,3595.66,3372.72,3671.36,349.71,351.72,0.18,0000 0000 0000 0000 000000
2015-06-09 01:09:41,0.03,0.00,0.00,19.52,18.84,22.23,4.78,24.49,1016.65,2071.02,3594.71,3371.79,3670.27,349.99,351.73,0.21,0000 0000 0000 0000 000000
2015-06-09 01:14:42,0.15,0.01,0.00,19.74,19.03,22.65,4.76,24.46,1017.03,2070.59,3591.64,3369.64,3667.92,349.78,351.38,0.23,0000 0000 0000 0000 000000
2015-06-09 01:19:44,0.29,0.02,0.00,19.97,19.24,23.08,4.75,24.46,1017.43,2070.00,3586.82,3366.56,3664.48,349.78,351.44,0.26,0000 0000 0000 0000 000000
2015-06-09 01:24:45,0.00,0.02,0.00,20.21,19.47,23.52,4.73,24.41,1017.59,2069.24,3584.67,3364.72,3662.46,349.68,350.94,0.29,0000 0000 0000 0000 000000
2015-06-09 01:29:46,-0.01,0.02,0.00,20.45,19.73,23.91,4.77,24.63,1017.61,2068.57,3583.49,3363.44,3660.81,350.24,351.27,0.32,0000 0000 0000 0000 000000
2015-06-09 01:34:47,0.04,0.02,0.00,20.70,19.99,24.29,4.79,24.42,1017.86,2067.78,3582.09,3361.82,3659.05,350.16,350.86,0.35,0000 0000 0000 0000 000000
2015-06-09 01:39:48,0.02,0.02,0.00,20.91,20.27,24.68,4.75,24.47,1018.08,2066.86,3580.59,3360.29,3657.25,350.00,350.44,0.38,0000 0000 0000 0000 000000
2015-06-09 01:44:49,-0.00,0.02,0.00,21.17,20.56,25.06,4.71,24.39,1018.27,2065.83,3578.99,3358.53,3655.22,349.73,350.27,0.41,0000 0000 0000 0000 000000
2015-06-09 01:49:50,0.03,0.02,0.00,21.45,20.86,25.44,4.77,24.32,1018.57,2064.87,3577.26,3356.72,3653.17,350.19,350.38,0.44,0000 0000 0000 0000 000000
2015-06-09 01:54:51,-0.02,0.02,0.00,21.71,21.16,25.78,4.73,24.25,1018.77,2063.76,3575.50,3354.85,3651.01,349.96,349.90,0.47,0000 0000 0000 0000 000000
2015-06-09 01:59:53,0.01,0.02,0.00,21.92,21.47,26.13,4.74,24.05,1019.06,2062.64,3573.59,3352.93,3648.78,350.23,350.17,0.50,0000 0000 0000 0000 000000
2015-06-09 02:04:54,0.01,0.02,0.00,22.15,21.77,26.47,4.74,23.98,1019.09,2061.59,3571.71,3351.07,3646.74,350.04,349.42,0.53,0000 0000 0000 0000 000000
2015-06-09 02:09:55,0.02,0.02,0.00,22.40,22.08,26.81,4.79,24.11,1019.22,2060.46,3569.79,3349.01,3644.47,350.12,349.38,0.56,0000 0000 0000 0000 000000
2015-06-09 02:14:56,0.02,0.02,0.00,22.63,22.38,27.13,4.82,24.12,1019.46,2059.34,3567.80,3347.01,3642.18,350.42,349.39,0.59,0000 0000 0000 0000 000000
2015-06-09 02:19:58,0.05,0.02,0.00,22.98,22.69,27.43,4.68,24.18,1019.51,2058.18,3565.67,3344.88,3639.80,350.01,348.63,0.62,0000 0000 0000 0000 000000
2015-06-09 02:24:59,0.10,0.02,0.00,23.18,23.00,27.73,4.70,24.27,1019.44,2056.98,3562.41,3341.92,3636.50,349.68,348.22,0.64,0000 0000 0000 0000 000000
2015-06-09 02:30:00,-0.02,0.03,0.00,23.25,23.29,27.99,4.79,24.07,1019.54,2055.75,3560.16,3339.73,3634.04,349.59,347.99,0.67,0000 0000 0000 0000 000000
2015-06-09 02:35:01,0.02,0.03,0.00,23.31,23.57,28.18,4.74,24.19,1019.55,2054.65,3558.01,3337.64,3631.67,349.68,348.01,0.70,0000 0000 0000 0000 000000
2015-06-09 02:40:03,0.04,0.03,0.00,23.42,23.84,28.30,4.74,24.21,1019.55,2053.64,3555.79,3335.56,3629.30,350.04,348.30,0.73,0000 0000 0000 0000 000000
2015-06-09 02:45:04,0.03,0.03,0.00,23.42,24.09,28.23,4.71,24.18,1019.55,2052.68,3553.95,3333.73,3627.29,350.03,348.04,0.76,0000 0000 0000 0000 000000
2015-06-09 02:50:05,-0.02,0.03,0.00,23.42,24.32,28.07,4.69,24.30,1019.54,2051.67,3552.32,3332.09,3625.40,349.52,347.91,0.79,0000 0000 0000 0000 000000
2015-06-09 02:55:06,0.05,0.03,0.00,23.40,24.54,28.11,4.67,24.28,1019.54,2050.82,3550.70,3330.59,3623.68,349.58,347.88,0.82,0000 0000 0000 0000 000000
2015-06-09 03:00:07,0.01,0.03,0.00,23.40,24.74,28.18,4.72,24.23,1019.56,2050.00,3549.33,3329.21,3621.98,349.60,347.61,0.85,0000 0000 0000 0000 000000
2015-06-09 03:05:09,-0.01,0.03,0.00,23.38,24.93,28.26,4.80,24.16,1019.81,2049.12,3547.88,3327.84,3620.51,350.07,348.36,0.88,0000 0000 0000 0000 000000
2015-06-09 03:10:10,-0.03,0.03,0.00,23.37,25.09,28.33,4.74,24.07,1020.00,2048.40,3546.63,3326.65,3618.95,349.64,348.16,0.91,0000 0000 0000 0000 000000
2015-06-09 03:15:11,0.11,0.03,0.00,23.37,25.25,28.38,4.74,24.13,1020.03,2047.60,3544.61,3324.71,3616.79,349.94,348.43,0.94,0000 0000 0000 0000 000000
2015-06-09 03:20:12,0.23,0.04,0.00,23.37,25.40,28.45,4.66,24.03,1020.04,2047.01,3540.92,3321.26,3613.01,350.04,348.46,0.97,0000 0000 0000 0000 000000
2015-06-09 03:25:14,0.03,0.04,0.00,23.37,25.54,28.51,4.70,23.96,1020.08,2046.71,3539.64,3320.00,3611.61,350.44,348.57,1.00,0000 0000 0000 0000 000000
2015-06-09 03:30:15,0.03,0.04,0.00,23.40,25.66,28.59,4.69,23.97,1020.07,2046.02,3538.54,3318.95,3610.40,349.88,348.27,1.03,0000 0000 0000 0000 000000
2015-06-09 03:35:16,-0.06,0.04,0.00,23.40,25.78,28.66,4.77,23.98,1020.07,2045.40,3537.69,3318.04,3609.39,349.66,348.09,1.05,0000 0000 0000 0000 000000
2015-06-09 03:40:17,0.06,0.04,0.00,23.42,25.89,28.73,4.72,23.78,1020.27,2044.97,3536.70,3317.12,3608.32,350.17,348.71,1.08,0000 0000 0000 0000 000000
2015-06-09 03:45:19,-0.05,0.04,0.00,23.42,25.99,28.79,4.83,23.85,1020.46,2044.30,3535.88,3316.19,3607.36,350.55,349.11,1.11,0000 0000 0000 0000 000000
2015-06-09 03:50:20,0.06,0.04,0.00,23.44,26.09,28.84,4.80,23.62,1020.52,2044.00,3535.03,3315.50,3606.46,349.83,348.35,1.14,0000 0000 0000 0000 000000
2015-06-09 03:55:21,-0.05,0.04,0.00,23.45,26.18,28.90,4.84,23.70,1020.53,2043.49,3534.27,3314.78,3605.53,350.24,348.74,1.17,0000 0000 0000 0000 000000
2015-06-09 04:00:23,0.01,0.04,0.00,23.47,26.26,28.94,4.73,23.72,1020.53,2043.01,3533.83,3314.03,3604.80,349.44,348.09,1.20,0000 0000 0000 0000 000000
2015-06-09 04:05:24,0.00,0.04,0.00,23.49,26.34,28.99,4.68,23.63,1020.53,2042.74,3533.04,3313.44,3604.02,349.76,348.36,1.23,0000 0000 0000 0000 000000
2015-06-09 04:10:25,-0.03,0.04,0.00,23.48,26.41,29.04,4.72,23.53,1020.55,2042.09,3532.50,3312.94,3603.28,350.34,348.85,1.26,0000 0000 0000 0000 000000
2015-06-09 04:15:26,0.05,0.04,0.00,23.50,26.48,29.11,4.74,23.55,1020.58,2041.99,3532.00,3312.12,3602.70,349.60,348.06,1.29,0000 0000 0000 0000 000000
2015-06-09 04:20:27,-0.05,0.04,0.00,23.52,26.55,29.16,4.69,23.51,1020.57,2041.68,3531.38,3311.93,3602.00,349.44,347.89,1.32,0000 0000 0000 0000 000000
2015-06-09 04:25:29,-0.00,0.04,0.00,23.55,26.60,29.20,4.78,23.66,1020.58,2041.04,3530.97,3311.13,3601.23,350.64,348.95,1.35,0000 0000 0000 0000 000000
2015-06-09 04:30:30,0.05,0.04,0.00,23.56,26.66,29.23,4.71,23.59,1020.87,2040.99,3530.18,3310.69,3600.77,349.96,348.48,1.38,0000 0000 0000 0000 000000
2015-06-09 04:35:31,0.01,0.04,0.00,23.59,26.72,29.28,4.84,23.63,1020.95,2040.92,3529.90,3310.06,3600.08,350.62,348.90,1.41,0000 0000 0000 0000 000000
2015-06-09 04:40:32,-0.07,0.04,0.00,23.60,26.77,29.34,4.86,23.51,1020.98,2040.35,3529.27,3309.93,3599.76,350.01,348.58,1.44,0000 0000 0000 0000 000000
2015-06-09 04:45:34,0.02,0.04,0.00,23.61,26.82,29.38,4.82,23.59,1021.00,2040.01,3529.00,3309.27,3599.04,350.16,348.54,1.46,0000 0000 0000 0000 000000
2015-06-09 04:50:35,0.01,0.04,0.00,23.65,26.86,29.41,4.79,23.63,1020.96,2039.99,3528.71,3309.00,3598.86,350.24,348.79,1.49,0000 0000 0000 0000 000000
2015-06-09 04:55:36,0.02,0.04,0.00,23.65,26.91,29.45,4.82,23.68,1020.99,2039.95,3528.05,3308.94,3598.15,350.42,348.92,1.52,0000 0000 0000 0000 000000
2015-06-09 05:00:37,-0.06,0.04,0.00,23.66,26.95,29.50,4.76,23.63,1021.00,2039.51,3528.00,3308.21,3597.99,350.31,348.72,1.55,0000 0000 0000 0000 000000
2015-06-09 05:05:38,-0.01,0.04,0.00,23.68,26.99,29.53,4.75,23.58,1021.01,2039.09,3527.74,3308.00,3597.76,349.77,348.41,1.58,0000 0000 0000 0000 000000
2015-06-09 05:10:39,0.02,0.04,0.00,23.71,27.02,29.56,4.66,23.48,1021.01,2039.01,3527.05,3307.93,3597.06,349.53,347.98,1.61,0000 0000 0000 0000 000000
2015-06-09 05:15:40,0.03,0.04,0.00,23.74,27.06,29.60,4.64,23.52,1021.01,2039.00,3526.98,3307.40,3596.99,349.45,347.65,1.64,0000 0000 0000 0000 000000
2015-06-09 05:20:41,0.04,0.04,0.00,23.75,27.09,29.63,4.69,23.51,1021.02,2038.97,3526.41,3307.02,3596.47,349.10,347.41,1.67,0000 0000 0000 0000 000000
2015-06-09 05:25:42,-0.04,0.04,0.00,23.76,27.13,29.66,4.88,23.60,1021.03,2038.78,3526.07,3306.98,3596.04,350.59,349.04,1.70,0000 0000 0000 0000 000000
2015-06-09 05:30:44,-0.05,0.04,0.00,23.77,27.16,29.69,4.80,23.59,1021.01,2038.16,3525.98,3306.54,3595.99,350.15,348.32,1.73,0000 0000 0000 0000 000000
2015-06-09 05:35:45,0.00,0.04,0.00,23.78,27.19,29.72,4.73,23.47,1021.02,2038.08,3525.91,3306.21,3595.80,349.72,347.90,1.76,0000 0000 0000 0000 000000
2015-06-09 05:40:46,0.02,0.04,0.00,23.82,27.21,29.74,4.75,23.32,1021.04,2038.01,3525.42,3306.00,3595.09,349.92,348.15,1.79,0000 0000 0000 0000 000000
2015-06-09 05:45:47,0.01,0.04,0.00,23.86,27.24,29.75,4.76,23.36,1021.22,2038.00,3525.04,3306.00,3595.01,350.09,348.16,1.82,0000 0000 0000 0000 000000
2015-06-09 05:50:49,0.00,0.04,0.00,23.88,27.27,29.77,4.71,23.31,1021.50,2038.00,3525.00,3305.97,3595.00,349.79,348.40,1.85,0000 0000 0000 0000 000000
2015-06-09 05:55:50,0.06,0.04,0.00,23.89,27.30,29.80,4.79,23.27,1021.49,2037.99,3524.87,3305.35,3594.41,350.27,348.46,1.87,0000 0000 0000 0000 000000
2015-06-09 06:00:51,0.02,0.04,0.00,23.90,27.32,29.81,4.75,23.32,1021.49,2037.98,3524.13,3304.97,3593.94,350.26,348.56,1.90,0000 0000 0000 0000 000000
2015-06-09 06:05:52,0.08,0.04,0.00,23.93,27.35,29.84,4.71,23.34,1021.48,2037.93,3523.09,3304.14,3593.09,350.24,348.39,1.93,0000 0000 0000 0000 000000
2015-06-09 06:10:54,-0.02,0.04,0.00,23.96,27.37,29.86,4.77,23.31,1021.50,2037.74,3522.89,3303.99,3592.92,350.68,348.79,1.96,0000 0000 0000 0000 000000
2015-06-09 06:15:55,-0.01,0.04,0.00,23.97,27.39,29.87,4.69,23.26,1021.50,2037.27,3522.06,3303.48,3592.14,349.65,347.88,1.99,0000 0000 0000 0000 000000
2015-06-09 06:20:57,0.01,0.04,0.00,23.98,27.41,29.91,4.78,23.27,1021.51,2037.05,3521.50,3303.01,3591.77,349.80,348.01,2.02,0000 0000 0000 0000 000000
2015-06-09 06:25:58,0.06,0.05,0.00,24.00,27.43,29.94,4.81,23.30,1021.72,2037.00,3520.85,3302.36,3591.06,349.69,348.14,2.05,0000 0000 0000 0000 000000
2015-06-09 06:30:59,0.02,0.05,0.00,24.03,27.45,29.95,4.80,23.31,1021.98,2037.00,3520.08,3302.01,3590.94,349.96,348.22,2.08,0000 0000 0000 0000 000000
2015-06-09 06:36:01,0.01,0.05,0.00,24.05,27.47,29.96,4.72,23.30,1021.99,2037.00,3520.00,3302.00,3590.64,349.90,348.19,2.11,0000 0000 0000 0000 000000
2015-06-09 06:41:02,0.01,0.05,0.00,24.06,27.49,29.99,4.73,23.29,1021.99,2036.99,3520.00,3301.95,3590.04,349.70,348.01,2.14,0000 0000 0000 0000 000000
2015-06-09 06:46:04,0.01,0.05,0.00,24.08,27.51,30.01,4.80,23.21,1021.99,2036.99,3519.98,3301.71,3590.00,350.44,348.61,2.17,0000 0000 0000 0000 000000
2015-06-09 06:51:05,0.03,0.05,0.00,24.10,27.52,30.02,4.71,23.27,1021.99,2036.98,3519.56,3301.18,3589.98,349.80,347.99,2.20,0000 0000 0000 0000 000000
2015-06-09 06:56:06,0.00,0.05,0.00,24.12,27.55,30.03,4.75,23.26,1021.99,2036.92,3519.06,3301.01,3589.77,349.60,347.89,2.23,0000 0000 0000 0000 000000
2015-06-09 07:01:07,-0.03,0.05,0.00,24.12,27.56,30.03,4.79,23.32,1021.99,2036.72,3519.01,3301.00,3589.21,350.06,348.18,2.26,0000 0000 0000 0000 000000
2015-06-09 07:06:08,-0.06,0.05,0.00,24.14,27.57,30.06,4.80,23.38,1022.00,2036.39,3518.99,3300.93,3589.00,349.79,348.08,2.28,0000 0000 0000 0000 000000
2015-06-09 07:11:10,0.01,0.05,0.00,24.16,27.60,30.09,4.72,23.24,1022.00,2036.21,3518.88,3300.72,3588.99,349.90,348.15,2.31,0000 0000 0000 0000 000000
2015-06-09 07:16:11,0.03,0.05,0.00,24.19,27.60,30.11,4.74,23.19,1022.01,2036.07,3518.20,3300.13,3588.79,349.99,348.15,2.34,0000 0000 0000 0000 000000
2015-06-09 07:21:12,0.01,0.05,0.00,24.20,27.62,30.12,4.80,23.25,1022.02,2036.01,3517.98,3300.00,3588.04,350.53,348.56,2.37,0000 0000 0000 0000 000000
2015-06-09 07:26:13,0.04,0.05,0.00,24.20,27.63,30.14,4.71,23.27,1022.01,2036.01,3517.49,3299.75,3587.96,349.15,347.48,2.40,0000 0000 0000 0000 000000
2015-06-09 07:31:15,0.04,0.05,0.00,24.21,27.65,30.14,4.63,23.25,1022.02,2036.00,3516.97,3299.07,3587.21,349.28,347.54,2.43,0000 0000 0000 0000 000000
2015-06-09 07:36:16,0.01,0.05,0.00,24.24,27.66,30.16,4.75,23.23,1022.19,2036.00,3516.76,3299.00,3587.01,350.36,348.65,2.46,0000 0000 0000 0000 000000
2015-06-09 07:41:17,0.03,0.05,0.00,24.25,27.67,30.18,4.81,23.27,1022.34,2036.00,3516.10,3298.83,3586.87,350.15,348.31,2.49,0000 0000 0000 0000 000000
2015-06-09 07:46:19,0.07,0.05,0.00,24.25,27.68,30.17,4.81,23.32,1022.36,2036.00,3515.23,3298.04,3586.05,350.51,348.31,2.52,0000 0000 0000 0000 000000
2015-06-09 07:51:20,0.07,0.06,0.00,24.25,27.70,30.19,4.79,23.34,1022.39,2035.99,3514.31,3297.45,3585.40,350.28,348.68,2.55,0000 0000 0000 0000 000000
2015-06-09 07:56:21,0.05,0.06,0.00,24.27,27.71,30.21,4.85,23.30,1022.33,2035.98,3513.37,3296.89,3584.72,350.36,348.47,2.58,0000 0000 0000 0000 000000
2015-06-09 08:01:22,0.07,0.06,0.00,24.28,27.72,30.22,4.84,23.27,1022.24,2035.99,3512.44,3296.09,3584.03,350.50,348.70,2.61,0000 0000 0000 0000 000000
2015-06-09 08:06:24,0.00,0.06,0.00,24.28,27.73,30.23,4.76,23.12,1022.27,2035.98,3512.00,3296.00,3583.98,350.23,348.38,2.64,0000 0000 0000 0000 000000
2015-06-09 08:11:25,0.04,0.06,0.00,24.29,27.75,30.24,4.69,23.21,1022.03,2035.96,3511.62,3295.74,3583.34,349.22,347.28,2.67,0000 0000 0000 0000 000000
2015-06-09 08:16:26,0.03,0.06,0.00,24.29,27.75,30.25,4.64,23.19,1021.99,2035.93,3511.02,3295.07,3583.01,349.29,347.30,2.69,0000 0000 0000 0000 000000
2015-06-09 08:21:27,0.01,0.06,0.00,24.30,27.76,30.27,4.70,23.34,1022.01,2035.93,3510.91,3295.00,3583.00,349.63,347.71,2.72,0000 0000 0000 0000 000000
2015-06-09 08:26:29,0.01,0.06,0.00,24.31,27.77,30.28,4.73,23.27,1022.01,2035.81,3510.14,3294.96,3582.92,349.67,347.69,2.75,0000 0000 0000 0000 000000
2015-06-09 08:31:30,-0.02,0.06,0.00,24.32,27.78,30.30,4.81,23.38,1022.01,2035.45,3509.97,3294.28,3582.18,350.35,348.25,2.78,0000 0000 0000 0000 000000
2015-06-09 08:36:31,0.01,0.06,0.00,24.34,27.80,30.30,4.76,23.28,1022.03,2035.41,3509.43,3294.01,3582.00,349.97,348.08,2.81,0000 0000 0000 0000 000000
2015-06-09 08:41:32,0.02,0.06,0.00,24.35,27.80,30.31,4.72,23.18,1022.18,2035.36,3508.99,3293.99,3581.96,350.24,348.24,2.84,0000 0000 0000 0000 000000
2015-06-09 08:46:33,0.04,0.07,0.00,24.35,27.81,30.31,4.76,23.16,1022.33,2035.31,3508.45,3293.65,3581.35,350.04,348.14,2.87,0000 0000 0000 0000 000000
2015-06-09 08:51:34,0.00,0.07,0.00,24.37,27.82,30.31,4.80,23.12,1022.45,2035.15,3507.99,3293.03,3581.00,350.21,348.37,2.90,0000 0000 0000 0000 000000
2015-06-09 08:56:35,0.01,0.07,0.00,24.38,27.82,30.32,4.73,23.19,1022.45,2035.07,3507.48,3292.99,3580.88,350.19,348.19,2.93,0000 0000 0000 0000 000000
2015-06-09 09:01:36,0.01,0.07,0.00,24.39,27.83,30.33,4.70,23.16,1022.48,2035.06,3507.04,3292.96,3580.28,349.89,347.89,2.96,0000 0000 0000 0000 000000
2015-06-09 09:06:38,0.01,0.07,0.00,24.41,27.85,30.35,4.73,23.18,1022.47,2035.02,3507.01,3292.83,3580.02,349.40,347.41,2.99,0000 0000 0000 0000 000000
2015-06-09 09:11:39,0.00,0.07,0.00,24.42,27.85,30.35,4.77,23.21,1022.42,2035.00,3507.00,3292.54,3580.01,350.11,347.98,3.02,0000 0000 0000 0000 000000
2015-06-09 09:16:40,0.02,0.07,0.00,24.43,27.86,30.35,4.74,23.23,1022.40,2035.00,3506.99,3292.18,3580.00,350.11,348.19,3.05,0000 0000 0000 0000 000000
2015-06-09 09:21:41,0.00,0.07,0.00,24.43,27.87,30.38,4.72,23.22,1022.43,2035.00,3506.98,3292.08,3580.00,350.11,348.02,3.08,0000 0000 0000 0000 000000
2015-06-09 09:26:42,0.00,0.07,0.00,24.44,27.87,30.39,4.73,23.28,1022.46,2035.00,3506.95,3292.01,3580.00,350.12,347.83,3.10,0000 0000 0000 0000 000000
2015-06-09 09:31:43,0.01,0.07,0.00,24.45,27.89,30.39,4.72,23.20,1022.47,2035.00,3506.59,3292.00,3579.94,349.76,347.67,3.13,0000 0000 0000 0000 000000
2015-06-09 09:36:44,-0.01,0.07,0.00,24.45,27.90,30.40,4.78,23.27,1022.47,2035.00,3506.69,3292.01,3579.87,350.23,348.25,3.16,0000 0000 0000 0000 000000
2015-06-09 09:41:46,0.02,0.07,0.00,24.45,27.90,30.42,4.75,23.27,1022.48,2035.00,3506.41,3292.00,3579.69,349.89,347.88,3.19,0000 0000 0000 0000 000000
2015-06-09 09:46:47,0.00,0.07,0.00,24.44,27.92,30.42,4.71,23.14,1022.48,2035.00,3506.22,3292.00,3579.68,349.80,347.92,3.22,0000 0000 0000 0000 000000
2015-06-09 09:51:48,0.02,0.07,0.00,24.45,27.92,30.41,4.71,23.23,1022.48,2034.98,3506.04,3291.99,3579.22,350.03,347.98,3.25,0000 0000 0000 0000 000000
2015-06-09 09:56:50,0.00,0.07,0.00,24.45,27.92,30.43,4.70,23.23,1022.50,2034.98,3506.01,3291.99,3579.03,350.24,348.36,3.28,0000 0000 0000 0000 000000
2015-06-09 10:01:51,-0.00,0.07,0.00,24.46,27.94,30.45,4.75,23.29,1022.50,2034.96,3506.00,3291.96,3579.01,350.03,348.07,3.31,0000 0000 0000 0000 000000
2015-06-09 10:06:52,0.01,0.07,0.00,24.45,27.95,30.47,4.75,23.34,1022.49,2034.99,3505.99,3291.90,3579.00,350.22,348.24,3.34,0000 0000 0000 0000 000000
2015-06-09 10:11:54,-0.00,0.07,0.00,24.45,27.95,30.48,4.72,23.23,1022.54,2034.97,3505.96,3291.84,3579.00,350.07,348.08,3.37,0000 0000 0000 0000 000000
2015-06-09 10:16:55,0.02,0.07,0.00,24.47,27.95,30.49,4.72,23.28,1022.58,2034.98,3505.84,3291.67,3579.00,350.03,348.06,3.40,0000 0000 0000 0000 000000
2015-06-09 10:21:56,0.02,0.07,0.00,24.47,27.96,30.48,4.73,23.12,1022.59,2034.99,3505.47,3291.26,3578.98,349.99,348.09,3.43,0000 0000 0000 0000 000000
2015-06-09 10:26:58,0.01,0.07,0.00,24.46,27.97,30.49,4.81,23.23,1022.61,2034.98,3505.24,3291.18,3578.97,350.16,348.23,3.46,0000 0000 0000 0000 000000
2015-06-09 10:31:59,0.00,0.07,0.00,24.45,27.97,30.48,4.68,23.09,1022.61,2034.94,3505.02,3291.04,3578.93,350.06,348.09,3.49,0000 0000 0000 0000 000000
2015-06-09 10:37:00,0.00,0.07,0.00,24.47,27.97,30.51,4.79,23.18,1022.51,2034.98,3505.00,3291.04,3578.95,349.75,347.79,3.51,0000 0000 0000 0000 000000
2015-06-09 10:42:01,0.00,0.07,0.00,24.47,27.98,30.53,4.78,23.16,1022.50,2034.96,3505.00,3291.01,3578.73,350.21,348.18,3.54,0000 0000 0000 0000 000000
2015-06-09 10:47:02,0.01,0.07,0.00,24.47,27.99,30.54,4.77,23.17,1022.49,2034.97,3504.99,3291.00,3578.30,350.09,348.12,3.57,0000 0000 0000 0000 000000
2015-06-09 10:52:03,0.00,0.07,0.00,24.46,28.00,30.55,4.78,23.18,1022.49,2034.98,3504.98,3291.00,3578.12,350.66,348.64,3.60,0000 0000 0000 0000 000000
2015-06-09 10:57:04,-0.00,0.07,0.00,24.47,28.00,30.54,4.70,23.07,1022.49,2034.97,3504.99,3291.00,3578.03,349.80,347.79,3.63,0000 0000 0000 0000 000000
2015-06-09 11:02:06,-0.01,0.07,0.00,24.49,28.00,30.49,4.77,23.15,1022.48,2034.91,3504.91,3291.00,3578.00,349.93,347.94,3.66,0000 0000 0000 0000 000000
2015-06-09 11:07:07,-0.00,0.07,0.00,24.53,28.00,30.41,4.75,23.20,1022.48,2034.88,3504.95,3290.99,3578.00,349.91,347.75,3.69,0000 0000 0000 0000 000000
2015-06-09 11:12:08,-0.07,0.07,0.00,24.56,28.01,30.35,4.76,23.17,1022.48,2034.55,3504.98,3290.98,3577.99,350.05,347.96,3.72,0000 0000 0000 0000 000000
2015-06-09 11:17:09,-0.03,0.07,0.00,24.60,28.02,30.33,4.74,23.14,1022.48,2034.17,3504.82,3290.92,3577.94,349.81,347.55,3.75,0000 0000 0000 0000 000000
2015-06-09 11:22:10,0.00,0.07,0.00,24.66,28.02,30.32,4.70,23.19,1022.48,2034.05,3504.66,3290.75,3577.73,349.57,347.33,3.78,0000 0000 0000 0000 000000
2015-06-09 11:27:12,0.02,0.07,0.00,24.72,28.04,30.34,4.74,23.18,1022.48,2034.03,3504.37,3290.55,3577.47,349.92,347.46,3.81,0000 0000 0000 0000 000000
2015-06-09 11:32:13,0.03,0.07,0.00,24.75,28.05,30.37,4.77,23.26,1022.50,2034.01,3504.04,3290.08,3577.06,349.98,347.53,3.84,0000 0000 0000 0000 000000
2015-06-09 11:37:14,-0.00,0.07,0.00,24.79,28.06,30.39,4.77,23.10,1022.50,2034.00,3504.02,3290.06,3577.04,350.45,348.02,3.87,0000 0000 0000 0000 000000
2015-06-09 11:42:15,0.00,0.07,0.00,24.81,28.07,30.41,4.70,23.03,1022.50,2034.02,3504.00,3290.06,3577.07,349.94,347.52,3.90,0000 0000 0000 0000 000000
2015-06-09 11:47:16,0.00,0.07,0.00,24.85,28.08,30.47,4.76,23.09,1022.50,2034.01,3504.00,3290.02,3577.02,350.13,347.62,3.92,0000 0000 0000 0000 000000
2015-06-09 11:52:18,0.00,0.07,0.00,24.85,28.10,30.50,4.77,23.09,1022.49,2034.00,3503.97,3290.01,3577.00,350.45,347.75,3.95,0000 0000 0000 0000 000000
2015-06-09 11:57:19,0.00,0.07,0.00,24.85,28.11,30.55,4.70,23.06,1022.48,2034.00,3503.97,3290.00,3577.00,349.38,346.85,3.98,0000 0000 0000 0000 000000
2015-06-09 12:02:20,0.00,0.07,0.00,24.85,28.12,30.58,4.81,23.11,1022.48,2034.00,3503.84,3290.00,3576.99,350.17,347.77,4.01,0000 0000 0000 0000 000000
2015-06-09 12:07:21,0.01,0.07,0.00,24.85,28.14,30.60,4.74,23.08,1022.48,2034.00,3503.65,3289.98,3576.98,350.20,347.65,4.04,0000 0000 0000 0000 000000
2015-06-09 12:12:23,0.01,0.07,0.00,24.83,28.15,30.62,4.78,23.04,1022.48,2034.00,3503.14,3289.96,3576.92,350.43,347.99,4.07,0000 0000 0000 0000 000000
2015-06-09 12:17:24,0.01,0.07,0.00,24.82,28.15,30.66,4.76,23.06,1022.48,2034.00,3503.02,3289.92,3576.69,350.31,348.08,4.10,0000 0000 0000 0000 000000
2015-06-09 12:22:26,0.03,0.07,0.00,24.82,28.17,30.67,4.77,23.18,1022.48,2034.00,3503.00,3289.38,3576.11,349.89,347.48,4.13,0000 0000 0000 0000 000000
2015-06-09 12:27:27,0.01,0.07,0.00,24.82,28.17,30.68,4.76,23.16,1022.48,2033.99,3502.96,3289.10,3576.01,350.34,347.89,4.16,0000 0000 0000 0000 000000
2015-06-09 12:32:28,0.00,0.07,0.00,24.83,28.17,30.72,4.75,23.13,1022.48,2033.98,3502.78,3289.01,3576.00,350.23,347.90,4.19,0000 0000 0000 0000 000000
2015-06-09 12:37:29,0.01,0.07,0.00,24.83,28.19,30.74,4.79,23.13,1022.48,2033.96,3502.52,3289.00,3576.00,350.40,347.89,4.22,0000 0000 0000 0000 000000
2015-06-09 12:42:31,-0.00,0.07,0.00,24.83,28.20,30.77,4.72,23.17,1022.48,2033.96,3502.24,3289.00,3576.00,349.71,347.14,4.25,0000 0000 0000 0000 000000
2015-06-09 12:47:32,-0.00,0.07,0.00,24.83,28.20,30.78,4.81,23.08,1022.48,2033.97,3502.22,3289.00,3576.00,350.26,347.90,4.28,0000 0000 0000 0000 000000
2015-06-09 12:52:33,0.01,0.07,0.00,24.84,28.20,30.78,4.77,23.15,1022.47,2033.96,3502.02,3288.99,3575.97,350.10,347.64,4.31,0000 0000 0000 0000 000000
2015-06-09 12:57:35,-0.01,0.07,0.00,24.84,28.22,30.78,4.74,23.07,1022.48,2033.93,3502.01,3288.98,3575.95,349.66,347.39,4.33,0000 0000 0000 0000 000000
2015-06-09 13:02:36,0.01,0.07,0.00,24.82,28.22,30.78,4.75,23.05,1022.47,2033.91,3502.00,3288.97,3575.75,349.81,347.49,4.36,0000 0000 0000 0000 000000
2015-06-09 13:07:37,-0.00,0.07,0.00,24.82,28.22,30.79,4.72,23.08,1022.48,2033.90,3502.00,3288.97,3575.50,349.66,347.34,4.39,0000 0000 0000 0000 000000
2015-06-09 13:12:39,-0.00,0.07,0.00,24.81,28.23,30.80,4.78,23.07,1022.48,2033.82,3502.00,3288.95,3575.25,350.10,347.65,4.42,0000 0000 0000 0000 000000
2015-06-09 13:17:40,0.00,0.07,0.00,24.80,28.24,30.79,4.69,23.10,1022.44,2033.75,3501.98,3288.85,3575.08,349.78,347.39,4.45,0000 0000 0000 0000 000000
2015-06-09 13:22:41,0.03,0.07,0.00,24.79,28.25,30.82,4.77,23.02,1022.45,2033.72,3501.78,3288.55,3575.02,350.08,347.58,4.48,0000 0000 0000 0000 000000
2015-06-09 13:27:42,0.02,0.08,0.00,24.78,28.25,30.82,4.79,23.18,1022.44,2033.69,3501.05,3288.05,3574.90,350.41,347.91,4.51,0000 0000 0000 0000 000000
2015-06-09 13:32:44,0.02,0.08,0.00,24.77,28.25,30.84,4.74,23.11,1022.47,2033.44,3500.26,3287.84,3574.10,349.81,347.58,4.54,0000 0000 0000 0000 000000
2015-06-09 13:37:45,0.02,0.08,0.00,24.77,28.25,30.86,4.71,23.10,1022.47,2033.26,3499.61,3287.06,3573.85,350.27,347.71,4.57,0000 0000 0000 0000 000000